Regional Weather Roundup
Issued by NWS Sterling, VA

Home | Current Version | Previous Version | Graphics & Text | Print | Product List | Glossary On
Versions: 1 2 3 4 5 6 7 8 9 10 11 12 13 14 15 16 17 18 19 20 21 22 23 24 25 26 27 28 29 30 31 32 33 34 35 36 37 38 39 40 41 42 43 44 45 46 47 48 49 50
000
ASUS41 KLWX 190810
RWRLWX

REGIONAL WEATHER ROUNDUP
NATIONAL WEATHER SERVICE BALTIMORE MD/WASHINGTON DC
300 AM EST MON FEB 19 2018

Note: "FAIR" indicates few or no clouds below 12,000 feet
with no significant weather and/or obstructions to visibility.
 TC=TEMPERATURE CELSIUS

 * =Non NWS site. Station does not report precipitation (e.g. rain,
    snow, etc.), thunder, or fog.

DCZ001-MDZ009-015-VAZ040>042-051-053>054-190900-
WASHINGTON METRO

CITY           SKY/WX    TMP DP  RH WIND       PRES   REMARKS
WASHINGTON NAT CLOUDY    41  35  79 S10       30.50S WCI  35
DULLES         CLOUDY    39  34  82 S7        30.47F WCI  34
ANDREWS AFB    MOCLDY    37  32  84 S5        30.47S WCI  33
FT BELVOIR     CLOUDY    39  35  85 SE5       30.49S
QUANTICO       CLOUDY    40  36  86 S7        30.50F
COLLEGE PARK*  CLOUDY    35  32  90 CALM      30.49S
LEESBURG*      CLOUDY    39  34  81 S8        30.47S WCI  34
MANASSAS*      CLOUDY    38  34  85 S5        30.49S WCI  34
GAITHERSBURG*  CLOUDY    38  32  79 S9        30.47S WCI  31

$$

MDZ006>007-011-014-190900-
BALTIMORE METRO

CITY           SKY/WX    TMP DP  RH WIND       PRES   REMARKS
BWI AIRPORT    CLOUDY    35  34  96 CALM      30.48F
MD SCIENCE CTR   N/A     38  34  85 MISG      30.49F
MARTIN STATE   FAIR      32  32 100 CALM      30.51F FOG
ANNAPOLIS      FAIR      41  37  86 SE12      30.48F WCI  34
FORT MEADE*    CLOUDY    32  30  93 CALM      30.51S

$$

MDZ012-015-019>023-190900-
MARYLAND EASTERN SHORE

CITY           SKY/WX    TMP DP  RH WIND       PRES   REMARKS
OCEAN CITY     FAIR      40  37  89 VRB3      30.53F
SALISBURY      FAIR      30  29  96 CALM      30.52S
BAY BRIDGE AP* FAIR      37  32  81 SE8       30.49F WCI  31
CAMBRIDGE*     CLEAR     34  32  93 SE8       30.50F WCI  27
EASTON*        FAIR      37  32  81 S5        30.53F WCI  34

$$

MDZ017>025-190900-
SOUTHERN MARYLAND

CITY           SKY/WX    TMP DP  RH WIND       PRES   REMARKS
PATUXENT RIVER FAIR      39  36  89 SE8       30.49F WCI  33
ST INIGOES     FAIR      41  31  67 VRB7      30.48F
LEONARDTOWN*   FAIR      37  34  87 SE6       30.49F WCI  33

$$

MDZ003>005-190900-
NORTH CENTRAL MARYLAND

CITY           SKY/WX    TMP DP  RH WIND       PRES   REMARKS
FREDERICK*     CLOUDY    34  34 100 CALM      30.50R
HAGERSTOWN APT FAIR      39  31  72 S14       30.41F WCI  31
WESTMINSTER*   CLOUDY    37  34  87 S13       30.43F WCI  29

$$

MDZ501>502-190900-
WESTERN MARYLAND

CITY           SKY/WX    TMP DP  RH WIND       PRES   REMARKS
OAKLAND*         N/A     34  30  86 SE15      30.22S WCI  24
CUMBERLAND*    FAIR      32  30  93 NW3       30.39F

$$

VAZ025>031-190900-
SHENANDOAH VALLEY

CITY           SKY/WX    TMP DP  RH WIND       PRES   REMARKS
WINCHESTER*    FAIR      39  30  70 S9G18     30.41S WCI  33
FRONT ROYAL*   FAIR      41  32  70 SW5       30.39S
LURAY*         FAIR      41  36  81 SW8       30.39F
NEW MARKET*    FAIR      32  30  94 CALM      30.37F
STAUNTON*      FAIR      41  35  77 S12       30.40F WCI  34
WAYNESBORO*    CLOUDY    41  36  83 SE5       30.39F

$$

WVZ021-048>050-054>055-190900-
EASTERN WEST VIRGINIA PANHANDLE

CITY           SKY/WX    TMP DP  RH WIND       PRES   REMARKS
MARTINSBURG    FAIR      38  30  73 S9        30.41S WCI  31
PETERSBURG*    FAIR      29  27  91 CALM      30.33F

$$

VAZ036>039-050-190900-
CENTRAL FOOTHILLS

CITY           SKY/WX    TMP DP  RH WIND       PRES   REMARKS
CHARLOTTESVILL CLOUDY    42  35  76 S6        30.44F
CULPEPER*      CLOUDY    39  33  77 CALM      30.48S
ORANGE*        CLOUDY    37  32  81 CALM      30.46S
GORDONSVILLE*  CLOUDY    39  35  85 CALM      30.45F
WARRENTON*     CLOUDY    40  31  69 CALM      30.47S

$$

VAZ055>057-190900-
NORTH AND CENTRAL PIEDMONT

CITY           SKY/WX    TMP DP  RH WIND       PRES   REMARKS
FREDERICKSBRG* FAIR      38  35  86 S3        30.48F
STAFFORD*      FAIR      37  36  96 CALM      30.52F

$$

NCZ024-NYZ072-PAZ021-071-VAZ022-071-190900-
OTHER REGIONAL OBSERVATIONS

CITY           SKY/WX    TMP DP  RH WIND       PRES   REMARKS
NEW YORK CITY  FAIR      37  26  64 SE8       30.54S WCI  31
PHILADELPHIA   MOCLDY    35  27  72 SE6       30.52S WCI  30
PITTSBURGH     CLOUDY    35  28  75 CALM      30.15F
ROANOKE        LGT RAIN  43  38  82 SE6       30.42F
RICHMOND       MOCLDY    36  33  89 SE3       30.47F
RALEIGH        LGT RAIN  43  37  79 E8        30.45R FOG

$$

ANZ530>537-190900-
MARINE OBSERVATIONS

STATION/POSITION TIME  TEMP    WIND        PRES
                       AIR SEA DIR/SP/G
                 (UTC) (F)     (DEG/KT/KT) (MB)
THOMAS PT LIGHT  0800   39 38     CALM       N/A
BALT KEY BRIDGE  0748   38     110/  7/  8 1032.5F
COVE POINT       0748   39     170/ 13/ 14 1032.9F
LEWISETTA        0748   41 43  160/  8/  9 1032.4F
SOLOMONS ISLAND  0748   40 40  140/  8/  9 1032.1F

$$




USA.gov is the U.S. government's official web portal to all federal, state and local government web resources and services.